WB7TUJ Weather Reports


time (UTC)temp
C
wind
direction
speed
KPH
gust
KPH
rain 1hr
cm
rain 24hr
cm
rain mn
cm
humidity
%
barometer
mb
20260507163031 27 65 0.0 0.0 0.00 0.00 0.00 25 968.7
20260507161529 26 65 0.0 0.0 0.00 0.00 0.00 25 968.9
20260507160025 26 65 0.0 0.0 0.00 0.00 0.00 27 969.0
20260507154522 25 65 0.0 0.0 0.00 0.00 0.00 29 969.1
20260507153017 24 65 0.0 0.0 0.00 0.00 0.00 33 969.2
20260507151516 23 65 0.0 0.0 0.00 0.00 0.00 35 969.1
20260507150015 23 40 0.0 0.0 0.00 0.00 0.00 32 969.1
20260507144514 23 38 0.0 0.0 0.00 0.00 0.00 33 969.0
20260507143010 22 37 0.0 0.0 0.00 0.00 0.00 33 969.0
20260507141508 21 37 0.0 0.0 0.00 0.00 0.00 34 968.9
20260507140007 21 37 0.0 0.0 0.00 0.00 0.00 34 968.9
20260507134507 21 32 0.0 0.0 0.00 0.00 0.00 34 968.8
20260507133006 20 24 0.0 0.0 0.00 0.00 0.00 35 968.7
20260507131505 20 350 0.0 0.0 0.00 0.00 0.00 34 968.3
20260507130007 19 19 0.0 0.0 0.00 0.00 0.00 35 968.3
20260507124504 18 19 0.0 0.0 0.00 0.00 0.00 36 968.5
20260507123002 19 19 0.0 0.0 0.00 0.00 0.00 36 968.5
20260507121501 19 19 0.0 0.0 0.00 0.00 0.00 35 968.4
20260507120001 20 19 0.0 0.0 0.00 0.00 0.00 35 968.4
20260507114606 20 19 0.0 0.0 0.00 0.00 0.00 34 968.4
20260507113102 20 271 0.0 0.0 0.00 0.00 0.00 34 968.2
20260507111558 20 267 0.0 0.0 0.00 0.00 0.00 34 968.3
20260507110055 20 261 0.0 0.0 0.00 0.00 0.00 35 968.4
20260507104554 19 261 0.0 0.0 0.00 0.00 0.00 36 968.5
20260507103054 19 261 0.0 0.0 0.00 0.00 0.00 36 968.6
20260507101550 19 261 0.0 0.0 0.00 0.00 0.00 36 968.7
20260507100047 19 261 0.0 0.0 0.00 0.00 0.00 36 968.8
20260507094547 20 261 0.0 0.0 0.00 0.00 0.00 36 969.0
20260507093043 20 261 0.0 0.0 0.00 0.00 0.00 35 969.0
20260507091541 20 261 0.0 0.0 0.00 0.00 0.00 35 969.0
20260507090042 20 261 0.0 0.0 0.00 0.00 0.00 35 969.1
20260507084536 20 261 0.0 0.0 0.00 0.00 0.00 35 969.1
20260507083038 20 261 0.0 0.0 0.00 0.00 0.00 35 969.2
20260507081532 21 261 0.0 0.0 0.00 0.00 0.00 35 969.3
20260507080030 21 261 0.0 0.0 0.00 0.00 0.00 34 969.4
20260507074530 21 261 0.0 0.0 0.00 0.00 0.00 35 969.4
20260507073026 21 261 0.0 0.0 0.00 0.00 0.00 34 969.4
20260507071523 21 261 0.0 0.0 0.00 0.00 0.00 34 969.2
20260507070020 22 261 0.0 0.0 0.00 0.00 0.00 33 969.3
20260507064520 22 261 0.0 0.0 0.00 0.00 0.00 33 969.2
20260507063019 22 261 0.0 0.0 0.00 0.00 0.00 32 969.2
20260507061519 23 261 0.0 0.0 0.00 0.00 0.00 31 969.2
20260507060022 23 261 0.0 0.0 0.00 0.00 0.00 31 969.2
20260507054518 23 261 0.0 0.0 0.00 0.00 0.00 31 969.1
20260507053018 23 261 0.0 0.0 0.00 0.00 0.00 30 969.2
20260507051517 24 261 0.0 0.0 0.00 0.00 0.00 29 969.2
20260507050016 24 261 0.0 0.0 0.00 0.00 0.00 28 969.0
20260507044514 25 261 0.0 0.0 0.00 0.00 0.00 28 968.9
20260507043013 25 261 0.0 0.0 0.00 0.00 0.00 27 968.8
20260507041512 25 261 0.0 0.0 0.00 0.00 0.00 26 968.6
20260507040013 25 261 0.0 0.0 0.00 0.00 0.00 26 968.5
20260507034512 25 261 0.0 0.0 0.00 0.00 0.00 26 968.3
20260507033009 25 261 0.0 0.0 0.00 0.00 0.00 27 968.1
20260507031509 26 261 0.0 0.0 0.00 0.00 0.00 26 968.0
20260507030011 26 261 0.0 0.0 0.00 0.00 0.00 25 967.8
20260507024508 26 261 0.0 0.0 0.00 0.00 0.00 25 967.6
20260507023007 26 261 0.0 0.0 0.00 0.00 0.00 26 967.5
20260507021511 26 261 0.0 0.0 0.00 0.00 0.00 25 967.3
20260507020007 27 261 0.0 0.0 0.00 0.00 0.00 24 967.3
20260507014507 27 257 0.0 0.0 0.00 0.00 0.00 24 967.2
20260507013004 27 232 0.0 0.0 0.00 0.00 0.00 24 967.3
20260507011504 27 275 0.0 17.7 0.00 0.00 0.00 24 967.3
20260507010003 27 51 0.0 16.1 0.00 0.00 0.00 24 967.2
20260507004502 27 200 0.0 14.5 0.00 0.00 0.00 24 967.2
20260507003003 27 207 0.0 12.9 0.00 0.00 0.00 24 967.2
20260507001501 28 236 3.2 19.3 0.00 0.00 0.00 24 967.2
20260506234603 27 193 4.8 14.5 0.00 0.00 0.00 24 967.2
20260506233056 27 264 3.2 17.7 0.00 0.00 0.00 24 967.3
20260506231555 27 205 4.8 16.1 0.00 0.00 0.00 25 967.4
20260506230054 27 285 0.0 19.3 0.00 0.00 0.00 25 967.7
20260506224552 28 314 0.0 3.2 0.00 0.00 0.00 24 967.8
20260506223048 27 191 0.0 0.0 0.00 0.00 0.00 24 968.0
20260506221546 27 270 0.0 9.7 0.00 0.00 0.00 25 968.1
20260506220057 27 265 6.4 16.1 0.00 0.00 0.00 25 968.4
20260506214547 27 287 4.8 19.3 0.00 0.00 0.00 25 968.5
20260506213044 27 301 0.0 14.5 0.00 0.00 0.00 25 968.8
20260506211541 26 220 0.0 0.0 0.00 0.00 0.00 26 969.0
20260506210039 26 213 0.0 20.9 0.00 0.00 0.00 27 969.2
20260506204539 26 276 4.8 17.7 0.00 0.00 0.00 26 969.5
20260506203101 26 297 0.0 0.0 0.00 0.00 0.00 27 969.6
20260506201535 25 263 1.6 20.9 0.00 0.00 0.00 27 969.7
20260506200044 25 355 1.6 14.5 0.00 0.00 0.00 27 969.9
20260506194530 25 202 0.0 17.7 0.00 0.00 0.00 29 970.0
20260506193028 25 275 6.4 19.3 0.00 0.00 0.00 28 970.2
20260506191527 24 103 0.0 14.5 0.00 0.00 0.00 29 970.3
20260506190034 25 209 4.8 17.7 0.00 0.00 0.00 30 970.5
20260506184526 23 209 0.0 19.3 0.00 0.00 0.00 30 970.7
20260506183025 24 284 0.0 0.0 0.00 0.00 0.00 31 971.0
20260506181524 23 283 0.0 1.6 0.00 0.00 0.00 31 971.1
20260506180021 23 189 0.0 17.7 0.00 0.00 0.00 33 971.1
20260506174521 23 263 1.6 6.4 0.00 0.00 0.00 33 971.3
20260506173019 23 173 0.0 0.0 0.00 0.00 0.00 33 971.3
20260506171518 22 171 0.0 0.0 0.00 0.00 0.00 35 971.2
20260506170021 22 161 0.0 0.0 0.00 0.00 0.00 35 971.2
20260506164516 22 130 0.0 0.0 0.00 0.00 0.00 35 971.2